Regional Weather Roundup
Issued by NWS

Home | Current Version | Previous Version | Text Only | Print | Product List | Glossary Off
Versions: 1 2 3 4 5 6 7 8 9 10 11 12 13 14 15 16 17 18 19 20 21 22 23 24 25 26 27 28 29 30 31 32 33 34 35 36 37 38 39 40 41 42 43 44 45 46 47 48 49 50

000
ASUS43 KLOT 211403
RWRIL

ILLINOIS REGIONAL WEATHER ROUNDUP
NATIONAL WEATHER SERVICE CHICAGO/ROMEOVILLE IL
800 AM CST TUE FEB 21 2017

NOTE: "FAIR" INDICATES FEW OR NO CLOUDS BELOW 12,000 FEET WITH NO
SIGNIFICANT WEATHER AND/OR OBSTRUCTIONS TO VISIBILITY.

* THESE STATIONS ARE NOT UNDER NWS QUALITY CONTROL. THEY ALSO MAY NOT
  REPORT WEATHER SUCH AS PRECIPITATION OR FOG.

ILZ001-002-007-009-015-016-024-211500-
NORTHWEST ILLINOIS

CITY           SKY/WX    TMP DP  RH WIND       PRES   REMARKS
MOLINE         CLOUDY    47  44  90 CALM      29.95R FOG
STERLING*      CLOUDY    50  47  89 N3        29.96R
SAVANNA*       CLOUDY    46  42  89 CALM      29.96R
$$

ILZ003-004-008-010-011-017-018-211500-
NORTH CENTRAL ILLINOIS

CITY           SKY/WX    TMP DP  RH WIND       PRES   REMARKS
ROCKFORD       CLOUDY    50  46  86 NW5       29.96R
FREEPORT*      PTSUNNY   44  42  93 W6        29.96R
ROCHELLE*      FOG       52  52 100 CALM      29.95R VSB<1/4
DE KALB*       CLOUDY    54  54  98 SW6       29.95R FOG
PERU*          CLOUDY    54  53  97 CALM      29.95S FOG
$$

ILZ005-006-012>014-019>023-211500-
NORTHEAST ILLINOIS

CITY           SKY/WX    TMP DP  RH WIND       PRES   REMARKS
CHICAGO-OHARE  CLOUDY    56  53  90 SW6       29.93R FOG
CHICAGO-MIDWAY LGT RAIN  55  52  89 S8        29.93S FOG
AURORA         CLOUDY    55  53  93 SW5       29.95R FOG
LANSING*       LGT RAIN  52  52 100 CALM      29.94F
JOLIET*        CLOUDY    55  55  99 CALM      29.94F FOG
WAUKEGAN       CLOUDY    54  53  97 SW8       29.93R FOG
DUPAGE AIRPORT CLOUDY    54  52  93 W6        29.94R FOG
KANKAKEE*      RAIN      52  52  98 CALM      29.94F
WHEELING       CLOUDY    55  53  93 SW3       29.95R FOG
MORRIS*        PTSUNNY   52  51  97 CALM      29.93F FOG
ROMEOVILLE*    PTSUNNY   53  53 100 S5        29.94F FOG
NORTHERLY ISL    N/A     54  51  90 S5          N/A
$$

LMZ740>746-211500-
SOUTHERN LAKE MICHIGAN

STATION/POSITION SKY/WX   TEMP    WIND        PRES    VSBY  WAVE
                          AIR SEA DIR/SP/G                  HT/PER
                          (F)     (DEG/KT/KT) (MB)    (MI)  (FT/S)
HARRISON CRIB              56     190/ 12/ 13   N/A
BURNHAM HARBOR             54     180/  6/  9   N/A
CALUMET HARBOR             53     200/  6/  8 1013.5R
BURNS HARBOR               54     170/  8/ 14 1014.2S
MICHIGAN CITY              53     150/ 11/ 13   N/A
$$

ILZ025>027-034>036-040-047-049-050-058-095>099-211500-
WEST-CENTRAL ILLINOIS

CITY           SKY/WX    TMP DP  RH WIND       PRES   REMARKS
QUINCY         FOG       55  55 100 N10       29.95R VSB 1/4
GALESBURG*     CLOUDY    51  51  97 CALM      29.95S
MACOMB*        CLOUDY    53  53 100 N9        29.97S FOG
JACKSONVILLE*  CLOUDY    56  56  99 E5        29.94R FOG
PITTSFIELD*    CLOUDY    56  56 100 CALM      29.96R FOG
$$

ILZ028>032-037-038-041>044-048-051>054-059>061-211500-
CENTRAL ILLINOIS

CITY           SKY/WX    TMP DP  RH WIND       PRES   REMARKS
PONTIAC        LGT RAIN  55  54  98 NW7       29.98R
BLOOMINGTON    LGT RAIN  55  54  96 SE13      29.96S
DECATUR        LGT RAIN  54  52  93 N9        29.95F FOG
PEORIA         CLOUDY    56  56 100 CALM      29.95S FOG
LACON*         PTSUNNY   53  53 100 CALM      29.94F FOG
LINCOLN*       RAIN      56  56 100 SE7       29.94F
SPRINGFIELD    LGT RAIN  58  56  93 E9        29.95S FOG
TAYLORVILLE    DRIZZLE   56  55  97 E6        29.95S
$$

ILZ033-039-045-046-055>057-062-063-211500-
EAST-CENTRAL ILLINOIS

CITY           SKY/WX    TMP DP  RH WIND       PRES   REMARKS
CHAMPAIGN      LGT RAIN  54  50  86 CALM      29.96F
RANTOUL*       RAIN      54  51  89 NW5       29.97S
MATTOON        CLOUDY    55  49  80 CALM      29.96S
PARIS*         CLOUDY    52  49  89 SE3       29.98F
$$

ILZ079-100>102-211500-
SOUTHWEST ILLINOIS

CITY           SKY/WX    TMP DP  RH WIND       PRES   REMARKS
ALTON          LGT RAIN  55  55 100 VRB6      29.93S FOG
BELLEVILLE     PTSUNNY   56  56 100 CALM      29.93S
CAHOKIA*       LGT RAIN  59  57  93 SE5       29.93R FOG
SPARTA*        CLOUDY    55  53  92 E3        29.94S
$$

ILZ064>066-069>071-074>076-080>082-084>086-088>090-092>094-211500-
SOUTH-CENTRAL ILLINOIS

CITY           SKY/WX    TMP DP  RH WIND       PRES   REMARKS
CARBONDALE     PTSUNNY   57  51  80 NE3       29.93S
CAIRO*         CLOUDY    58  50  77 E6        29.93R
EFFINGHAM*     LGT RAIN  54  52  92 E3        29.98R
MARION         PTSUNNY   59  52  77 E5        29.95S
MT. VERNON     CLOUDY    57  51  80 N5        29.95F
CENTRALIA*     CLOUDY    58  53  83 E5        29.95R
SALEM*         CLOUDY    58  51  78 E5        29.95S
METROPOLIS*    CLOUDY    56  51  81 CALM      29.95S
$$

ILZ067-068-072-073-078-083-087-091-211500-
SOUTHEAST ILLINOIS

CITY           SKY/WX    TMP DP  RH WIND       PRES   REMARKS
LAWRENCEVILLE  CLOUDY    53  47  79 SE5       29.98F
FLORA*         CLOUDY    57  50  79 SE5       29.97R
FAIRFIELD*     CLOUDY    55  50  82 CALM      29.95F
HARRISBURG*    CLOUDY    55  51  85 E5        29.96S
ROBINSON*      CLOUDY    51  47  89 E3        29.99F
CARMI*         CLOUDY    53  50  91 E5        29.97S
$$

ABBREVIATIONS USED IN REMARKS
   TC - TEMPERATURE IN CELSIUS
  WCI - WIND CHILL INDEX
   HX - HEAT INDEX
  VSB - VISIBILITY
$$




USA.gov is the U.S. government's official web portal to all federal, state and local government web resources and services.